Flag for U.S.A. Weather past 2 weeks in San Jose, California, U.S.A.

Now
62 °F

Mostly cloudy.


Feels Like: 62 °F
Forecast: 59 / 78 °F
Wind: No wind

Location: San Jose International Airport

Current Time: Aug 29, 2014 at 7:45:11 AM

Latest Report: Aug 29, 2014 at 6:53 AM


Visibility: 7 mi

Pressure: 29.93 "Hg

Humidity: 86%

Dew point: 58 °F

Location of San JoseLocation

Historic Weather in San Jose — Graph

°F

San Jose temperature yesterday

Maximum temperature yesterday: 81 °F (at 3:53 PM)
Minimum temperature yesterday: 60 °F (at 4:53 AM)
Average temperature yesterday: 68 °F

Past Weeks' High & Low Weather Summary

 TemperatureHumidityPressure
High82 °F (Aug 27, 2:53 PM)90% (Aug 17, 3:53 AM)30.07 "Hg (Aug 17, 3:53 AM)
Low57 °F (Aug 26, 5:53 AM)35% (Aug 20, 3:53 PM)29.79 "Hg (Aug 19, 4:53 PM)
Average67 °F69%29.93 "Hg
* Reported Aug 14 6:53 AM — Aug 29 6:53 AM, San Jose, Weather by CustomWeather, © 2014

Note: Actual official high and low records may vary slightly from our data, if they occured in-between our weather recording intervals... More about our weather records

Advertising

San Jose weather history for previous 24 hours

 ConditionsComfort  
Time TempWeatherWind HumidityBarometerVisibility
6:53 AM
Aug 29
62 °FMostly cloudy.No wind86%29.93 "Hg7 mi
5:53 AM62 °FMostly cloudy.No wind86%29.94 "Hg10 mi
4:53 AM62 °FOvercast.5 mph86%29.94 "Hg10 mi
3:53 AM62 °FOvercast.3 mph86%29.94 "Hg10 mi
2:53 AM61 °FOvercast.3 mph90%29.95 "Hg10 mi
1:53 AM61 °FClear.3 mph90%29.96 "Hg8 mi
12:53 AM61 °FClear.3 mph90%29.96 "Hg10 mi
11:53 PM
Aug 28
62 °FClear.3 mph86%29.97 "Hg10 mi
10:53 PM63 °FClear.7 mph87%29.97 "Hg10 mi
9:53 PM65 °FClear.9 mph85%29.97 "Hg10 mi
8:53 PM67 °FClear.7 mph79%29.96 "Hg10 mi
7:53 PM69 °FPassing clouds.9 mph73%29.94 "Hg10 mi
6:53 PM71 °FPassing clouds.9 mph68%29.94 "Hg10 mi
5:53 PM77 °FSunny.14 mph52%29.93 "Hg10 mi
4:53 PM81 °FSunny.10 mph41%29.93 "Hg10 mi
3:53 PM81 °FSunny.7 mph42%29.95 "Hg10 mi
2:53 PM79 °FSunny.9 mph48%29.97 "Hg10 mi
1:53 PM78 °FSunny.8 mph48%30.00 "Hg10 mi
12:53 PM75 °FSunny.8 mph52%30.02 "Hg10 mi
11:53 AM71 °FSunny.5 mph61%30.04 "Hg10 mi
10:53 AM67 °FPassing clouds.No wind71%30.06 "Hg9 mi
9:53 AM64 °FMostly cloudy.3 mph78%30.07 "Hg7 mi
8:53 AM63 °FMostly cloudy.7 mph81%30.07 "Hg7 mi
7:53 AM62 °FMostly cloudy.6 mph83%30.07 "Hg7 mi
Weather by CustomWeather, © 2014

See weather overviewHow to use our weather pages